Flag for U.S.A. Weather past 2 weeks in Pullman, Washington, U.S.A.

Now
58 °F

Light rain. Mostly cloudy.


Feels Like: 55 °F
Forecast: 50 / 67 °F
Wind: 12 mph from West

Location: Pullman / Moscow Regional Airport

Current Time: Sep 2, 2015 at 12:43:22 PM

Latest Report: Sep 2, 2015 at 11:53 AM


Visibility: 10 mi

Pressure: 29.90 "Hg (27.47 "Hg at 715m altitude)

Humidity: 58%

Dew point: 43 °F

Location of PullmanLocation

Historic Weather in Pullman — Graph

°F

Pullman temperature yesterday

Maximum temperature yesterday: 76 °F (at 4:53 PM)
Minimum temperature yesterday: 54 °F (at 6:53 AM)
Average temperature yesterday: 64 °F

Past Weeks' High & Low Weather Summary

 TemperatureHumidityPressure
High90 °F (Aug 26, 2:53 PM)84% (Aug 30, 12:53 PM)30.19 "Hg (Aug 30, 12:53 PM)
Low41 °F (Aug 22, 6:03 AM)12% (Aug 20, 5:53 PM)29.63 "Hg (Aug 29, 4:53 AM)
Average67 °F40%29.93 "Hg
* Reported Aug 18 10:53 AM — Sep 2 10:53 AM, Pullman, Weather by CustomWeather, © 2015

Note: Actual official high and low records may vary slightly from our data, if they occured in-between our weather recording intervals... More about our weather records

Advertising

Pullman weather history for previous 24 hours

 ConditionsComfort  
Time TempWeatherWind HumidityBarometerVisibility
10:53 AM
Wed, Sep 2
60 °FOvercast.7 mph53%29.89 "Hg10 mi
9:53 AM60 °FOvercast.13 mph58%29.88 "Hg10 mi
8:53 AM59 °FPartly sunny.10 mph60%29.85 "Hg10 mi
7:53 AM60 °FMostly cloudy.10 mph62%29.85 "Hg10 mi
6:53 AM60 °FMostly cloudy.No wind62%29.83 "Hg10 mi
5:53 AM61 °FMostly cloudy.8 mph58%29.80 "Hg10 mi
4:53 AM62 °FOvercast.5 mph54%29.78 "Hg10 mi
3:53 AM62 °FClear.8 mph52%29.77 "Hg10 mi
2:53 AM62 °FClear.15 mph50%29.76 "Hg10 mi
1:53 AM63 °FClear.18 mph48%29.75 "Hg10 mi
12:53 AM63 °FClear.5 mph48%29.77 "Hg10 mi
11:53 PM
Tue, Sep 1
64 °FClear.12 mph45%29.77 "Hg10 mi
10:53 PM60 °FClear.No wind39%29.77 "Hg10 mi
9:53 PM59 °FClear.3 mph42%29.77 "Hg10 mi
8:53 PM63 °FClear.No wind37%29.77 "Hg10 mi
7:53 PM67 °FSunny.7 mph31%29.76 "Hg10 mi
6:53 PM69 °FSunny.7 mph30%29.76 "Hg10 mi
5:53 PM74 °FSunny.8 mph25%29.76 "Hg10 mi
4:53 PM76 °FSunny.8 mph30%29.77 "Hg10 mi
3:53 PM75 °FSunny.7 mph30%29.79 "Hg10 mi
1:53 PM74 °FSunny.3 mph31%29.83 "Hg10 mi
12:53 PM71 °FSunny.6 mph34%29.86 "Hg10 mi
Weather by CustomWeather, © 2015

See weather overviewHow to use our weather pages